FW8355 Weather Reports


Display with metric or nautical units.
time (UTC)temp
F
wind
direction
speed
MPH
gust
MPH
rain 1hr
in
rain 24hr
in
rain mn
in
humidity
%
barometer
mb
20260902122516 90 225 5.0 12.0 0.00 0.00 0.00 57 1016.2
20260902121516 89 225 6.0 14.0 0.00 0.00 0.00 58 1016.2
20260902120516 89 225 7.0 16.0 0.00 0.00 0.00 59 1016.3
20260902115516 89 203 7.0 14.0 0.00 0.00 0.00 62 1016.3
20260902114516 89 248 6.0 12.0 0.00 0.00 0.00 62 1016.4
20260902113535 89 225 6.0 16.0 0.00 0.00 0.00 64 1016.4
20260902112535 89 203 7.0 13.0 0.00 0.00 0.00 64 1016.4
20260902111515 89 225 5.0 11.0 0.00 0.00 0.00 62 1016.5
20260902110516 89 203 7.0 14.0 0.00 0.00 0.00 61 1016.5
20260902105515 89 203 7.0 15.0 0.00 0.00 0.00 62 1016.6
20260902104516 89 225 5.0 10.0 0.00 0.00 0.00 63 1016.6
20260902103515 89 203 6.0 15.0 0.00 0.00 0.00 63 1016.5
20260902102516 88 203 6.0 12.0 0.00 0.00 0.00 64 1016.6
20260902101516 88 225 7.0 16.0 0.00 0.00 0.00 63 1016.8
20260902100535 88 203 8.0 17.0 0.00 0.00 0.00 66 1016.8
20260902095515 88 203 7.0 14.0 0.00 0.00 0.00 65 1016.8
20260902094515 89 225 4.0 11.0 0.00 0.00 0.00 66 1016.8
20260902093517 88 203 5.0 11.0 0.00 0.00 0.00 66 1016.9
20260902092537 88 225 4.0 9.0 0.00 0.00 0.00 65 1016.8
20260902091538 87 203 5.0 10.0 0.00 0.00 0.00 65 1016.9
20260902090517 87 203 3.0 8.0 0.00 0.00 0.00 66 1016.9
20260902085517 86 203 5.0 13.0 0.00 0.00 0.00 70 1016.9
20260902084517 86 203 5.0 12.0 0.00 0.00 0.00 70 1016.8
20260902083517 85 203 7.0 13.0 0.00 0.00 0.00 73 1016.8
20260902082517 84 203 5.0 13.0 0.00 0.00 0.00 75 1016.7
20260902081517 85 203 5.0 9.0 0.00 0.00 0.00 74 1016.8
20260902080517 84 203 6.0 13.0 0.00 0.00 0.00 75 1016.7
20260902075557 85 203 4.0 8.0 0.00 0.00 0.00 73 1016.8
20260902074517 84 180 3.0 8.0 0.00 0.00 0.00 72 1016.6
20260902073517 84 180 3.0 6.0 0.00 0.00 0.00 72 1016.5
20260902072517 83 90 1.0 5.0 0.00 0.00 0.00 72 1016.5
20260902071517 82 113 1.0 4.0 0.00 0.00 0.00 73 1016.5
20260902070517 81 90 2.0 6.0 0.00 0.00 0.00 75 1016.6
20260902065519 82 135 1.0 4.0 0.00 0.00 0.00 73 1016.7
20260902064537 81 0.0 0.0 0.00 0.00 0.00 75 1016.7
20260902063517 80 0.0 1.0 0.00 0.00 0.00 74 1016.7
20260902062537 80 0.0 3.0 0.00 0.00 0.00 77 1016.7
20260902061517 80 0.0 1.0 0.00 0.00 0.00 73 1016.7
20260902060517 79 0.0 0.0 0.00 0.00 0.00 73 1016.6
20260902055517 78 0.0 1.0 0.00 0.00 0.00 73 1016.5
20260902054517 77 0.0 0.0 0.00 0.00 0.00 78 1016.5
20260902053517 76 45 1.0 5.0 0.00 0.00 0.00 78 1016.4
20260902052537 75 0.0 0.0 0.00 0.00 0.00 77 1016.3
20260902051517 75 0.0 0.0 0.00 0.00 0.00 79 1016.2
20260902050517 74 0.0 0.0 0.00 0.00 0.00 80 1016.2
20260902045517 74 0.0 0.0 0.00 0.00 0.00 82 1016.2
20260902044517 74 0.0 0.0 0.00 0.00 0.00 80 1016.0
20260902043537 73 0.0 0.0 0.00 0.00 0.00 81 1016.1
20260902042557 74 0.0 0.0 0.00 0.00 0.00 81 1016.1
20260902041517 74 0.0 0.0 0.00 0.00 0.00 80 1016.0
20260902040517 74 0.0 0.0 0.00 0.00 0.00 80 1016.0
20260902035517 74 0.0 0.0 0.00 0.00 0.00 81 1016.0
20260902034517 74 0.0 0.0 0.00 0.00 0.00 81 1016.0
20260902033537 74 0.0 0.0 0.00 0.00 0.00 81 1016.0
20260902032517 74 0.0 0.0 0.00 0.00 0.00 81 1015.9
20260902031517 74 0.0 0.0 0.00 0.00 0.00 80 1015.9
20260902030517 74 0.0 0.0 0.00 0.00 0.00 81 1015.9
20260902025516 75 0.0 0.0 0.00 0.00 0.00 81 1015.9
20260902024517 75 0.0 0.0 0.00 0.00 0.00 83 1015.9
20260902023557 75 0.0 0.0 0.00 0.00 0.00 82 1015.8
20260902022536 75 0.0 0.0 0.00 0.00 0.00 82 1016.0
20260902021517 75 0.0 0.0 0.00 0.00 0.00 83 1016.0
20260902020516 75 0.0 0.0 0.00 0.00 0.00 83 1016.1
20260902015516 75 0.0 0.0 0.00 0.00 0.00 83 1016.1
20260902014517 75 0.0 0.0 0.00 0.00 0.00 84 1016.2
20260902013517 75 0.0 0.0 0.00 0.00 0.00 85 1016.2
20260902012517 75 0.0 0.0 0.00 0.00 0.00 86 1016.2
20260902011516 75 0.0 0.0 0.00 0.00 0.00 84 1016.3
20260902010516 75 0.0 0.0 0.00 0.00 0.00 83 1016.3
20260902005538 75 0.0 0.0 0.00 0.00 0.00 83 1016.4
20260902004516 76 0.0 0.0 0.00 0.00 0.00 84 1016.4
20260902003536 76 0.0 0.0 0.00 0.00 0.00 85 1016.4
20260902002516 76 0.0 0.0 0.00 0.00 0.00 85 1016.3
20260902001536 77 0.0 0.0 0.00 0.00 0.00 85 1016.4
20260901233516 77 0.0 0.0 0.00 0.00 0.00 84 1016.3
20260901232516 77 0.0 0.0 0.00 0.00 0.00 84 1016.4
20260901231516 77 0.0 0.0 0.00 0.00 0.00 83 1016.5
20260901230536 77 0.0 0.0 0.00 0.00 0.00 84 1016.5
20260901225517 77 0.0 0.0 0.00 0.00 0.00 85 1016.5
20260901224516 77 0.0 0.0 0.00 0.00 0.00 84 1016.4
20260901223516 77 0.0 0.0 0.00 0.00 0.00 83 1016.5
20260901222516 77 0.0 0.0 0.00 0.00 0.00 84 1016.4
20260901221516 77 0.0 0.0 0.00 0.00 0.00 83 1016.5
20260901220516 77 0.0 0.0 0.00 0.00 0.00 83 1016.4
20260901215517 77 0.0 0.0 0.00 0.00 0.00 83 1016.4
20260901214516 77 0.0 0.0 0.00 0.00 0.00 83 1016.3
20260901213537 78 0.0 0.0 0.00 0.00 0.00 84 1016.2
20260901212517 78 0.0 0.0 0.00 0.00 0.00 85 1016.2
20260901211518 78 0.0 0.0 0.00 0.00 0.00 84 1016.2
20260901210517 78 0.0 0.0 0.00 0.00 0.00 83 1016.3
20260901205517 78 0.0 1.0 0.00 0.00 0.00 84 1016.1
20260901204517 78 338 1.0 2.0 0.00 0.00 0.00 85 1016.1
20260901203517 78 315 1.0 2.0 0.00 0.00 0.00 86 1016.1
20260901202537 79 0.0 0.0 0.00 0.00 0.00 87 1016.2
20260901201516 79 0.0 0.0 0.00 0.00 0.00 87 1016.1
20260901200536 79 0.0 0.0 0.00 0.00 0.00 86 1016.1
20260901195517 80 0.0 0.0 0.00 0.00 0.00 85 1016.1
20260901194556 80 0.0 0.0 0.00 0.00 0.00 85 1016.1
20260901193517 80 0.0 0.0 0.00 0.00 0.00 84 1016.1
20260901192537 80 0.0 0.0 0.00 0.00 0.00 84 1016.0
20260901191536 81 0.0 0.0 0.00 0.00 0.00 84 1016.1
20260901190516 81 338 1.0 3.0 0.00 0.00 0.00 83 1016.0
20260901185516 81 0.0 2.0 0.00 0.00 0.00 83 1015.9
20260901184516 81 270 1.0 3.0 0.00 0.00 0.00 83 1015.8
20260901183557 81 0.0 1.0 0.00 0.00 0.00 83 1015.7
20260901182516 81 0.0 2.0 0.00 0.00 0.00 83 1015.4
20260901181516 81 225 1.0 4.0 0.00 0.00 0.00 83 1015.4
20260901180516 82 225 2.0 6.0 0.00 0.00 0.00 81 1015.3
20260901175516 82 203 4.0 8.0 0.00 0.00 0.00 81 1015.0
20260901174516 82 203 4.0 9.0 0.00 0.00 0.00 81 1014.9
20260901173516 82 203 5.0 11.0 0.00 0.00 0.00 80 1014.8
20260901172516 83 203 4.0 9.0 0.00 0.00 0.00 79 1014.8
20260901171516 83 203 4.0 9.0 0.00 0.00 0.00 79 1014.7
20260901170516 84 225 3.0 8.0 0.00 0.00 0.00 78 1014.8
20260901165516 85 203 4.0 9.0 0.00 0.00 0.00 76 1014.7
20260901164516 85 203 5.0 9.0 0.00 0.00 0.00 74 1014.7
20260901163516 85 203 4.0 9.0 0.00 0.00 0.00 74 1014.8
20260901162516 85 203 5.0 11.0 0.00 0.00 0.00 75 1014.7
20260901161517 86 203 5.0 11.0 0.00 0.00 0.00 74 1014.7
20260901160516 87 225 3.0 11.0 0.00 0.00 0.00 72 1014.7
20260901155516 87 203 5.0 10.0 0.00 0.00 0.00 71 1014.7
20260901154516 88 203 6.0 13.0 0.00 0.00 0.00 70 1014.6
20260901153536 88 248 4.0 11.0 0.00 0.00 0.00 68 1014.6
20260901152537 87 225 8.0 14.0 0.00 0.00 0.00 67 1014.6
20260901151516 88 203 4.0 9.0 0.00 0.00 0.00 69 1014.6
20260901150537 87 203 7.0 13.0 0.00 0.00 0.00 70 1014.5
20260901145516 87 203 6.0 11.0 0.00 0.00 0.00 72 1014.5
20260901144516 86 203 5.0 11.0 0.00 0.00 0.00 73 1014.5
20260901143516 87 203 7.0 13.0 0.00 0.00 0.00 73 1014.4
20260901142516 87 225 6.0 13.0 0.00 0.00 0.00 71 1014.5
20260901141517 88 225 9.0 14.0 0.00 0.00 0.00 70 1014.5
20260901140556 89 203 7.0 17.0 0.00 0.00 0.00 68 1014.5
20260901135516 88 225 8.0 16.0 0.00 0.00 0.00 68 1014.5
20260901134516 88 225 8.0 15.0 0.00 0.00 0.00 67 1014.4
20260901133516 89 225 8.0 14.0 0.00 0.00 0.00 66 1014.5
20260901132516 89 203 7.0 13.0 0.00 0.00 0.00 65 1014.4
20260901131516 89 203 9.0 15.0 0.00 0.00 0.00 65 1014.6
20260901130536 90 203 6.0 14.0 0.00 0.00 0.00 62 1014.7
20260901125516 90 225 7.0 16.0 0.00 0.00 0.00 62 1014.8
20260901124516 90 225 5.0 12.0 0.00 0.00 0.00 58 1014.8
20260901123516 90 225 7.0 15.0 0.00 0.00 0.00 59 1014.8